Location: Molveno
(46.1500°N, 10.9667°E)
Time: 01:28:28
(UTC+00:00)

Cosmos 1869 - Pass Details

Date: 05 July 2020
Orbit: 520 x 563 km, 82.5° (Epoch: 11 August)

Event Time Altitude Azimuth Distance (km) Brightness Sun altitude
Rises 22:01:32 0° 342° (NNW) 2,702 8.5 -18.9°
Reaches altitude 10° 22:03:47 10° 334° (NNW) 1,812 7.2 -19.0°
Maximum altitude 22:07:26 35° 268° (W) 890 4.5 -19.2°
Enters shadow 22:08:53 26° 226° (SW) 1,092 4.6 -19.3°
